Kulusuk, Greenland

5:49 PM -03 on March 25, 2017 (GMT -0300)
Kulusuk

Weather History for BGKK - February, 2014

Change the Weather History Date:

Tuesday, February 25, 2014

  Actual Average Record
Temperature  
Mean Temperature 18 °F -  
Max Temperature 27 °F 22 °F 35 °F (2003)
Min Temperature 10 °F 16 °F 1 °F (2009)
Degree Days  
Heating Degree Days 46    
Moisture  
Dew Point 10 °F    
Average Humidity 67    
Maximum Humidity 100    
Minimum Humidity 21    
Precipitation  
Precipitation 0.00 in - - ()
Sea Level Pressure  
Sea Level Pressure 29.47 in    
Wind  
Wind Speed 8 mph ()    
Max Wind Speed 50 mph    
Max Gust Speed 79 mph    
Visibility 2.8 miles    
Events Snow    
Averages and records for this station are not official NWS values.
T = Trace of Precipitation, MM = Missing Value Source: Averaged Metar Reports

Daily Weather History Graph

Daily Weather History Graph

Search for Another Location

Airport or City:

Trip Planner

Search our weather history database for the weather conditions in past years. The results will help you decide how hot, cold, wet, or windy it might be!

Date:

Astronomy

Feb. 25, 2014 Rise Set
Actual Time 6:55 AM -03 4:29 PM -03
Civil Twilight 6:03 AM -03 5:21 PM -03
Nautical Twilight 5:05 AM -03 6:19 PM -03
Astronomical Twilight 4:06 AM -03 7:19 PM -03
Moon 5:01 AM -03 11:08 AM -03
Length of Visible Light 11h 17m
Length of Day
9h 34m
Waning Crescent, 19% of the Moon is Illuminated
Feb 25
Waning Crescent
Mar 1
New
Mar 8
First Quarter
Mar 16
Full
Mar 23
Last Quarter

Hourly Weather History & Observations

Time (-03) Temp. Windchill Dew Point Humidity Pressure Visibility Wind Dir Wind Speed Gust Speed Precip Events Conditions
12:00 AM 14 °F - -1 °F 37% 29.47 in 22 mi West 3.5 mph - -  
12:20 AM 14.0 °F - 1.4 °F 57% 29.44 in 6.2 mi Variable 2.3 mph - N/A   Unknown
12:50 AM 14.0 °F 6.5 °F 1.4 °F 57% 29.44 in 6.2 mi WSW 4.6 mph - N/A   Unknown
1:00 AM 15 °F - -3 °F 30% 29.46 in 22 mi West 4.6 mph - -  
1:20 AM 14.0 °F 6.5 °F -0.4 °F 53% 29.44 in 6.2 mi West 4.6 mph - N/A   Unknown
1:50 AM 14.0 °F 6.5 °F -0.4 °F 53% 29.42 in 6.2 mi West 4.6 mph - N/A   Unknown
2:00 AM 13 °F - -2 °F 36% 29.45 in 22 mi WSW 4.6 mph - -  
2:20 AM 14.0 °F - 1.4 °F 57% 29.44 in 6.2 mi Variable 2.3 mph - N/A   Unknown
2:50 AM 14.0 °F 6.5 °F -0.4 °F 53% 29.44 in 6.2 mi SSW 4.6 mph - N/A   Mostly Cloudy
3:00 AM 12 °F - -2 °F 37% 29.47 in 22 mi SSW 4.6 mph - -   Partly Cloudy
3:20 AM 12.2 °F - -0.4 °F 57% 29.44 in 6.2 mi Variable 1.2 mph - N/A   Partly Cloudy
3:50 AM 10.4 °F 4.0 °F -2.2 °F 57% 29.44 in 6.2 mi SW 3.5 mph - N/A   Unknown
4:00 AM 13 °F - -4 °F 32% 29.47 in 22 mi WSW 3.5 mph - -  
4:20 AM 12.2 °F 2.9 °F -0.4 °F 57% 29.44 in 6.2 mi WSW 5.8 mph - N/A   Unknown
4:50 AM 14.0 °F 5.1 °F -2.2 °F 49% 29.44 in 6.2 mi WSW 5.8 mph - N/A   Unknown
5:00 AM 13 °F - -5 °F 28% 29.48 in 22 mi SW 5.8 mph - -  
5:20 AM 14.0 °F 6.5 °F -2.2 °F 49% 29.44 in 6.2 mi WSW 4.6 mph - N/A   Unknown
5:50 AM 14.0 °F 8.2 °F -2.2 °F 49% 29.47 in 6.2 mi SSW 3.5 mph - N/A   Mostly Cloudy
6:00 AM 14 °F - -4 °F 29% 29.49 in 22 mi ENE 2.3 mph - -   Mostly Cloudy
6:20 AM 14.0 °F - -0.4 °F 53% 29.47 in 6.2 mi South 1.2 mph - N/A   Overcast
6:50 AM 15.8 °F 10.2 °F -2.2 °F 45% 29.47 in 6.2 mi West 3.5 mph - N/A   Overcast
7:00 AM 15 °F - -4 °F 28% 29.50 in 22 mi NNW 1.2 mph - -   Overcast
7:20 AM 15.8 °F - -0.4 °F 49% 29.47 in 6.2 mi Variable 1.2 mph - N/A   Overcast
7:50 AM 14.0 °F 8.2 °F 1.4 °F 57% 29.47 in 6.2 mi WSW 3.5 mph - N/A   Overcast
8:00 AM 16 °F - -3 °F 27% 29.51 in 22 mi SSW 2.3 mph - -   Overcast
8:50 AM 15.8 °F - -0.4 °F 49% 29.50 in 6.2 mi Variable 1.2 mph - N/A   Overcast
9:00 AM 18 °F - -5 °F 21% 29.51 in 22 mi East 2.3 mph - -   Mostly Cloudy
9:50 AM 15.8 °F - 5.0 °F 62% 29.50 in 6.2 mi Variable 1.2 mph - N/A Snow Light Snow
10:00 AM 16 °F - 4 °F 46% 29.53 in 7 mi South 1.2 mph - - Snow Light Snow
10:50 AM 15.8 °F - 10.4 °F 79% 29.50 in 2.8 mi Variable 1.2 mph - N/A Snow Light Snow
11:00 AM 17 °F - 13 °F 80% 29.54 in 2 mi NNE 1.2 mph - - Snow Light Snow
11:50 AM 17.6 °F - 12.2 °F 79% 29.50 in 1.6 mi WSW 2.3 mph - N/A Snow Light Snow
12:00 PM 17 °F - 13 °F 77% 29.54 in 2 mi SW 2.3 mph - - Snow Light Snow
12:50 PM 17.6 °F - 14.0 °F 86% 29.50 in 1.6 mi SW 2.3 mph - N/A Snow Light Snow
1:00 PM 17 °F - 12 °F 73% 29.54 in 1 mi SW 2.3 mph - - Snow Light Snow
1:50 PM 17.6 °F 12.3 °F 14.0 °F 86% 29.50 in 1.6 mi WSW 3.5 mph - N/A Snow Light Snow
2:00 PM 18 °F - 14 °F 77% 29.52 in 1 mi WSW 2.3 mph - - Snow Light Snow
2:50 PM 19.4 °F - 15.8 °F 86% 29.50 in 1.2 mi Variable 1.2 mph - N/A Snow Light Snow
3:00 PM 19 °F - 15 °F 77% 29.52 in 1 mi WSW 3.5 mph - - Snow Light Snow
3:50 PM 19.4 °F 11.5 °F 17.6 °F 93% 29.50 in 0.4 mi WSW 5.8 mph - N/A Snow Snow
4:00 PM 20 °F - 17 °F 82% 29.52 in 0 mi West 5.8 mph - - Snow Snow
5:00 PM 20 °F - 17 °F 84% 29.52 in 0 mi NNW 6.9 mph - - Snow Snow
5:50 PM 26.6 °F 12.7 °F 23.0 °F 86% 29.47 in 0.7 mi ENE 20.7 mph - N/A Snow Light Snow
6:00 PM - - - %  in - Calm Calm - -  
6:20 PM 26.6 °F 11.1 °F 23.0 °F 86% 29.47 in 0.6 mi ENE 26.5 mph 44.9 mph N/A Snow Light Snow
6:50 PM 26.6 °F 10.3 °F 24.8 °F 93% 29.47 in - ENE 29.9 mph 41.4 mph N/A Snow Snow
7:00 PM 26 °F - 24 °F 86% 29.48 in 0 mi ENE 32.2 mph - - Snow Heavy Snow
7:20 PM 26.6 °F 9.8 °F 24.8 °F 93% 29.44 in 0.3 mi ENE 32.2 mph 57.5 mph N/A Snow Heavy Snow
7:50 PM 26.6 °F 8.9 °F 24.8 °F 93% 29.44 in 0.2 mi ENE 36.8 mph 57.5 mph N/A Snow Heavy Snow
8:00 PM 27 °F - 24 °F 85% 29.45 in 0 mi ENE 39.1 mph - - Snow Heavy Snow
8:20 PM 26.6 °F - 24.8 °F 93% 29.44 in 0.1 mi North - - N/A Snow Heavy Snow
8:50 PM 26.6 °F - 24.8 °F 93% 29.44 in 0.1 mi North - - N/A Snow Heavy Snow
9:00 PM 27 °F - 26 °F 94% 29.46 in 0 mi ENE 46.0 mph - - Snow Heavy Snow
9:20 PM 26.6 °F - 26.6 °F 100% 29.44 in 0.1 mi North - - N/A Snow Heavy Snow
9:50 PM 26.6 °F 7.1 °F 24.8 °F 93% 29.44 in 0.1 mi ENE 47.2 mph 69.0 mph N/A Snow Heavy Snow
10:00 PM 26 °F - 25 °F 93% 29.46 in 0 mi ENE 49.5 mph - - Snow Heavy Snow
10:20 PM 26.6 °F - 24.8 °F 93% 29.44 in 0.1 mi North - - N/A Snow Heavy Snow
10:50 PM 24.8 °F 4.2 °F 24.8 °F 100% 29.44 in 0.1 mi ENE 49.5 mph 79.4 mph N/A Snow Heavy Snow
11:00 PM 25 °F - 23 °F 91% 29.47 in 0 mi ENE 49.5 mph - - Snow Heavy Snow
11:20 PM 24.8 °F 4.6 °F 23.0 °F 93% 29.44 in 0.1 mi ENE 47.2 mph 69.0 mph N/A Snow Heavy Snow
11:50 PM 24.8 °F 4.6 °F 23.0 °F 93% 29.44 in 0.1 mi ENE 47.2 mph 62.1 mph N/A Snow Heavy Snow